This is the latest recevied weather packets stored in our database for station/object K2BIG. If no packets are shown the sender has not sent any weather packets the latest 10 day(s).
| Time | Temp. | Humidity | Pressure | Rain* | Wind** | Luminosity | Snow |
|---|---|---|---|---|---|---|---|
| 1778169016 | 16.11° C | 45% | 1010.7 hPa | 0 mm | - | - | - |
| 1778168716 | 15.56° C | 48% | 1010.7 hPa | 0 mm | - | - | - |
| 1778168416 | 16.11° C | 48% | 1010.8 hPa | 0 mm | - | - | - |
| 1778168116 | 15.56° C | 48% | 1010.9 hPa | 0 mm | - | - | - |
| 1778167816 | 16.11° C | 43% | 1010.9 hPa | 0 mm | - | - | - |
| 1778167516 | 15.56° C | 45% | 1010.8 hPa | 0 mm | - | - | - |
| 1778167216 | 15.56° C | 46% | 1011.1 hPa | 0 mm | - | - | - |
| 1778166916 | 15.56° C | 50% | 1011 hPa | 0 mm | - | - | - |
| 1778166616 | 15.56° C | 52% | 1011.1 hPa | 0 mm | - | - | - |
| 1778166316 | 15° C | 48% | 1011.1 hPa | 0 mm | - | - | - |
| 1778166016 | 15.56° C | 43% | 1011.1 hPa | 0 mm | - | - | - |
| 1778165716 | 15.56° C | 50% | 1011.1 hPa | 0 mm | - | - | - |
| 1778165416 | 15° C | 51% | 1011.2 hPa | 0 mm | - | - | - |
| 1778165116 | 15° C | 44% | 1011.1 hPa | 0 mm | - | - | - |
| 1778164816 | 15.56° C | 43% | 1011.1 hPa | 0 mm | - | - | - |
| 1778164516 | 15.56° C | 51% | 1011.3 hPa | 0 mm | - | - | - |
| 1778164216 | 15.56° C | 53% | 1011.3 hPa | 0 mm | - | - | - |
| 1778163915 | 15° C | 52% | 1011.3 hPa | 0 mm | - | - | - |
| 1778163615 | 15° C | 55% | 1011.3 hPa | 0 mm | - | - | - |
| 1778163316 | 15° C | 58% | 1011.4 hPa | 0 mm | - | - | - |
| 1778163016 | 14.44° C | 53% | 1011.4 hPa | 0 mm | - | - | - |
| 1778162716 | 14.44° C | 56% | 1011.5 hPa | 0 mm | - | - | - |
| 1778162416 | 14.44° C | 56% | 1011.5 hPa | 0 mm | - | - | - |
| 1778162116 | 13.89° C | 59% | 1011.5 hPa | 0 mm | - | - | - |
| 1778161816 | 13.89° C | 54% | 1011.5 hPa | 0 mm | - | - | - |
* Rain latest hour (hover to see other rain measurements)
** Current wind speed in m/s (hover to see current wind gust speed)